Location: Devore Heights
(34.2372°N, 117.4156°W)
Time: 08:49:54
(UTC+00:00)

A-11 Canister half - Pass Details

Date: 15 September 2024
Orbit: 1515 x 1684 km, 47.2° (Epoch: 07 October)

Event Time Altitude Azimuth Distance (km) Brightness Sun altitude
Rises 02:36:14 0° 244° (WSW) 4,749 12.6 -8.9°
Reaches altitude 10° 02:39:22 10° 247° (WSW) 3,745 12.0 -9.6°
Maximum altitude 02:48:45 67° 329° (NNW) 1,636 9.3 -11.5°
Drops below altitude 10° 02:57:58 10° 52° (NE) 3,677 10.6 -13.3°
Sets 03:01:02 0° 55° (NE) 4,659 11.1 -14.0°
